User: anonymous   Login
Location: Unnamed Road
(35.9029°N, 51.9749°E)
Time: 10:01:51
(UTC+04:30)
Language:

Explorer 11/Cluster Stage 4 - Orbit

View from above orbital plane
View from above orbital plane
View from above satellite
View from above satellite

Ground track
Ground track

The orbit data is extracted from the following two-line orbital elements,

1   107U 61013A   20157.69060893  .00000305  00000-0  21484-4 0  9996
2   107  28.7882 247.8917 0546778 351.3458   7.8002 14.08966739964110
Epoch (UTC): 05 June 2020 16:34:28
Eccentricity: 0.0546778
inclination: 28.7882°
perigee height: 467 km
apogee height: 1259 km
right ascension of ascending node: 247.8917°
argument of perigee: 351.3458°
revolutions per day: 14.08966739
mean anomaly at epoch: 7.8002°
orbit number at epoch: 96411

The dashed part of the orbit path shows where the satellite is in the earth's shadow,  

DLR